Total_Precipitation_Accumulation
1.91 1.80 1.34 0.78 0.63 0.46 0.39 0.41 0.41 0.36 0.40 0.48 0.50 0.49 0.53 0.55 0.57 0.61 0.63 0.60 0.59 0.70 0.99 1.11 1.19 1.48 1.73 1.90 2.09 2.23 2.30 2.35 2.56 2.70 2.68 2.60 2.45 2.22 2.09 2.04 1.91 1.78 1.71 1.74
1.66 1.25 0.76 0.57 0.57 0.53 0.47 0.46 0.46 0.39 0.36 0.47 0.48 0.46 0.44 0.43 0.53 0.64 0.64 0.64 0.66 0.69 0.86 0.99 1.06 1.20 1.41 1.63 1.88 2.13 2.24 2.31 2.30 2.35 2.54 2.68 2.75 2.56 2.25 2.07 1.98 1.86 1.78 1.76
1.24 0.77 0.60 0.68 0.65 0.62 0.51 0.43 0.38 0.39 0.40 0.47 0.46 0.47 0.39 0.40 0.47 0.54 0.58 0.61 0.60 0.61 0.70 0.81 0.92 1.12 1.26 1.40 1.65 1.97 2.14 2.27 2.27 2.27 2.52 2.73 2.86 2.68 2.36 2.01 1.85 1.85 1.87 1.87
1.10 0.68 0.65 0.76 0.61 0.53 0.50 0.29 0.28 0.31 0.47 0.55 0.48 0.64 0.43 0.42 0.45 0.48 0.54 0.54 0.53 0.54 0.59 0.65 0.78 0.95 1.08 1.25 1.43 1.61 1.82 1.99 2.18 2.25 2.30 2.33 2.41 2.38 2.15 2.03 1.95 1.95 1.95 1.94
1.03 0.71 0.71 0.76 0.53 0.44 0.42 0.28 0.32 0.34 0.45 0.51 0.39 0.58 0.48 0.33 0.37 0.47 0.55 0.57 0.55 0.58 0.61 0.61 0.73 0.90 0.97 1.10 1.35 1.49 1.56 1.75 1.95 2.10 2.16 2.27 2.21 2.23 2.28 2.23 2.15 2.07 2.02 1.96
0.77 0.62 0.73 0.63 0.48 0.45 0.44 0.43 0.48 0.47 0.62 0.66 0.32 0.45 0.46 0.32 0.37 0.42 0.44 0.51 0.56 0.60 0.69 0.73 0.80 0.87 0.93 1.00 1.21 1.43 1.43 1.51 1.64 1.86 2.08 2.15 2.05 2.05 2.09 2.07 2.04 2.03 2.03 2.00
1.01 0.76 0.61 0.54 0.64 0.58 0.54 0.68 0.95 0.99 0.89 0.49 0.22 0.34 0.42 0.31 0.33 0.36 0.37 0.43 0.50 0.59 0.65 0.73 0.79 0.77 0.82 0.91 1.05 1.24 1.34 1.41 1.46 1.60 1.78 1.95 2.03 2.01 2.01 2.01 1.97 1.90 1.82 1.74
0.98 1.02 0.63 0.51 0.60 0.63 0.50 0.51 0.67 0.66 0.42 0.27 0.22 0.32 0.35 0.31 0.27 0.24 0.26 0.33 0.42 0.49 0.52 0.57 0.66 0.71 0.78 0.83 0.89 0.97 1.05 1.12 1.17 1.24 1.36 1.52 1.74 1.83 1.78 1.81 1.80 1.76 1.68 1.66
0.60 0.64 0.41 0.35 0.36 0.41 0.53 0.45 0.30 0.52 0.41 0.35 0.26 0.24 0.26 0.24 0.23 0.23 0.25 0.31 0.39 0.46 0.51 0.53 0.60 0.63 0.69 0.76 0.82 0.84 0.87 0.93 1.01 1.03 1.10 1.17 1.36 1.51 1.56 1.60 1.57 1.49 1.48 1.53
0.35 0.45 0.35 0.30 0.37 0.38 0.37 0.36 0.45 0.75 0.64 0.45 0.25 0.22 0.34 0.28 0.23 0.24 0.29 0.32 0.39 0.50 0.50 0.48 0.54 0.57 0.61 0.68 0.75 0.76 0.78 0.82 0.94 0.98 1.00 1.03 1.10 1.19 1.34 1.44 1.36 1.30 1.30 1.33
0.27 0.41 0.40 0.36 0.37 0.31 0.26 0.35 0.41 0.51 0.46 0.46 0.29 0.29 0.33 0.32 0.27 0.27 0.30 0.36 0.44 0.48 0.50 0.51 0.54 0.57 0.61 0.68 0.68 0.67 0.74 0.80 0.89 0.93 0.89 0.89 0.94 0.99 1.05 1.13 1.15 1.12 1.15 1.13
0.19 0.32 0.37 0.27 0.16 0.15 0.22 0.23 0.31 0.56 0.40 0.30 0.31 0.33 0.29 0.26 0.26 0.26 0.28 0.33 0.39 0.42 0.46 0.46 0.48 0.53 0.58 0.61 0.59 0.57 0.64 0.71 0.82 0.86 0.80 0.79 0.84 0.90 0.92 0.93 0.97 0.97 0.99 1.01
0.25 0.39 0.46 0.39 0.32 0.30 0.34 0.23 0.25 0.43 0.59 0.42 0.37 0.36 0.26 0.21 0.21 0.22 0.24 0.27 0.31 0.33 0.33 0.34 0.36 0.39 0.41 0.41 0.43 0.50 0.54 0.54 0.60 0.64 0.61 0.61 0.63 0.69 0.77 0.79 0.78 0.80 0.84 0.88
0.50 0.46 0.39 0.41 0.38 0.46 0.43 0.22 0.23 0.62 0.80 0.36 0.21 0.26 0.22 0.20 0.24 0.25 0.25 0.24 0.24 0.25 0.25 0.28 0.29 0.29 0.32 0.34 0.36 0.40 0.40 0.42 0.49 0.51 0.49 0.49 0.51 0.53 0.58 0.63 0.62 0.62 0.66 0.71
0.48 0.47 0.26 0.27 0.32 0.48 0.43 0.25 0.24 0.41 0.35 0.35 0.20 0.20 0.23 0.23 0.28 0.29 0.26 0.21 0.19 0.19 0.20 0.23 0.25 0.25 0.28 0.30 0.31 0.33 0.36 0.42 0.48 0.51 0.52 0.48 0.47 0.48 0.51 0.55 0.56 0.54 0.55 0.55
0.43 0.48 0.34 0.33 0.29 0.40 0.33 0.17 0.15 0.17 0.16 0.17 0.16 0.21 0.20 0.23 0.28 0.31 0.28 0.21 0.16 0.15 0.16 0.17 0.19 0.20 0.23 0.27 0.31 0.34 0.40 0.49 0.54 0.56 0.53 0.52 0.49 0.46 0.44 0.44 0.45 0.45 0.46 0.47
0.45 0.58 0.72 0.56 0.26 0.33 0.30 0.17 0.15 0.15 0.13 0.14 0.20 0.20 0.17 0.24 0.29 0.27 0.21 0.15 0.13 0.12 0.13 0.14 0.15 0.18 0.20 0.28 0.36 0.43 0.48 0.56 0.58 0.60 0.56 0.51 0.48 0.45 0.42 0.40 0.40 0.42 0.43 0.46
0.31 0.55 0.87 0.74 0.46 0.47 0.30 0.20 0.18 0.16 0.14 0.12 0.14 0.12 0.12 0.16 0.19 0.17 0.13 0.11 0.10 0.09 0.09 0.10 0.11 0.13 0.15 0.21 0.30 0.39 0.47 0.58 0.61 0.61 0.60 0.59 0.59 0.59 0.61 0.61 0.61 0.61 0.59 0.60
0.14 0.43 0.73 0.64 0.48 0.26 0.13 0.12 0.16 0.20 0.18 0.13 0.11 0.09 0.07 0.09 0.15 0.20 0.16 0.13 0.11 0.08 0.07 0.07 0.09 0.10 0.10 0.12 0.20 0.29 0.43 0.59 0.71 0.77 0.76 0.76 0.81 0.86 0.91 0.94 0.93 0.92 0.91 0.90
0.11 0.28 0.62 0.58 0.47 0.22 0.12 0.05 0.07 0.12 0.21 0.09 0.07 0.07 0.06 0.08 0.16 0.22 0.20 0.17 0.14 0.12 0.10 0.09 0.09 0.11 0.13 0.15 0.22 0.36 0.53 0.69 0.79 0.84 0.87 0.90 0.96 1.03 1.01 1.00 0.98 0.91 0.86 0.85
0.21 0.37 0.55 0.51 0.46 0.21 0.11 0.04 0.04 0.19 0.26 0.10 0.08 0.08 0.08 0.10 0.14 0.13 0.14 0.17 0.17 0.17 0.19 0.20 0.21 0.23 0.26 0.28 0.37 0.52 0.63 0.72 0.76 0.77 0.79 0.82 0.81 0.83 0.81 0.79 0.76 0.72 0.67 0.62
0.21 0.30 0.34 0.36 0.49 0.35 0.15 0.10 0.18 0.25 0.15 0.11 0.09 0.09 0.10 0.10 0.09 0.07 0.07 0.10 0.14 0.18 0.24 0.31 0.37 0.39 0.40 0.42 0.49 0.57 0.58 0.58 0.57 0.55 0.53 0.52 0.48 0.45 0.46 0.47 0.47 0.47 0.44 0.41
0.24 0.32 0.34 0.36 0.41 0.30 0.19 0.21 0.23 0.18 0.15 0.12 0.11 0.10 0.09 0.09 0.08 0.07 0.06 0.06 0.07 0.09 0.11 0.16 0.22 0.26 0.27 0.27 0.30 0.33 0.29 0.26 0.24 0.21 0.21 0.21 0.19 0.19 0.21 0.23 0.24 0.26 0.28 0.28
0.23 0.19 0.24 0.30 0.29 0.21 0.19 0.20 0.20 0.17 0.16 0.14 0.13 0.12 0.11 0.11 0.10 0.09 0.07 0.06 0.06 0.06 0.07 0.07 0.08 0.09 0.10 0.10 0.11 0.12 0.10 0.08 0.08 0.09 0.09 0.11 0.13 0.15 0.17 0.19 0.20 0.21 0.22 0.23
0.20 0.19 0.22 0.26 0.22 0.18 0.16 0.16 0.16 0.15 0.12 0.11 0.11 0.10 0.11 0.12 0.13 0.11 0.10 0.09 0.08 0.08 0.08 0.08 0.08 0.08 0.08 0.08 0.08 0.08 0.08 0.08 0.09 0.09 0.10 0.11 0.13 0.15 0.16 0.18 0.20 0.23 0.22 0.24
0.16 0.21 0.29 0.30 0.20 0.20 0.17 0.12 0.11 0.10 0.10 0.10 0.11 0.12 0.12 0.13 0.14 0.12 0.11 0.10 0.10 0.10 0.10 0.09 0.10 0.10 0.12 0.12 0.14 0.14 0.14 0.13 0.13 0.14 0.14 0.16 0.17 0.18 0.18 0.19 0.20 0.22 0.24 0.26